LRBO Weather Reports


Display with metric or nautical units.
time (UTC)temp
F
wind
direction
speed
MPH
gust
MPH
rain 1hr
in
rain 24hr
in
rain mn
in
humidity
%
barometer
mb
20260507150353 73 160 9.0 0.0 0.00 0.00 0.00 44 1015.0
20260507144853 75 170 11.0 0.0 0.00 0.00 0.00 44 1015.0
20260507143355 75 170 11.0 0.0 0.00 0.00 0.00 44 1015.0
20260507141854 75 170 11.0 0.0 0.00 0.00 0.00 44 1015.0
20260507140353 75 170 11.0 0.0 0.00 0.00 0.00 44 1015.0
20260507134854 73 180 11.0 0.0 0.00 0.00 0.00 44 1015.0
20260507133353 73 180 11.0 0.0 0.00 0.00 0.00 44 1015.0
20260507131850 73 180 11.0 0.0 0.00 0.00 0.00 44 1015.0
20260507130353 73 180 11.0 0.0 0.00 0.00 0.00 44 1015.0
20260507124850 73 150 9.0 0.0 0.00 0.00 0.00 41 1016.0
20260507123432 73 150 9.0 0.0 0.00 0.00 0.00 41 1016.0
20260507121853 73 150 9.0 0.0 0.00 0.00 0.00 41 1016.0
20260507120354 73 150 9.0 0.0 0.00 0.00 0.00 41 1016.0
20260507114853 72 180 11.0 0.0 0.00 0.00 0.00 47 1016.0
20260507113420 0 0.0 0.0 0.00 0.00 0.00
20260507111853 72 180 11.0 0.0 0.00 0.00 0.00 47 1016.0
20260507110353 0 0.0 0.0 0.00 0.00 0.00
20260507104853 70 180 11.0 0.0 0.00 0.00 0.00 46 1017.0
20260507103353 70 180 11.0 0.0 0.00 0.00 0.00 46 1017.0
20260507101853 70 180 11.0 0.0 0.00 0.00 0.00 46 1017.0
20260507100354 70 180 11.0 0.0 0.00 0.00 0.00 46 1017.0
20260507094854 0 0.0 0.0 0.00 0.00 0.00
20260507093354 0 0.0 0.0 0.00 0.00 0.00
20260507091855 0 0.0 0.0 0.00 0.00 0.00
20260507090354 0 0.0 0.0 0.00 0.00 0.00
20260507084853 64 140 7.0 0.0 0.00 0.00 0.00 60 1017.0
20260507083354 64 140 7.0 0.0 0.00 0.00 0.00 60 1017.0
20260507081853 64 140 7.0 0.0 0.00 0.00 0.00 60 1017.0
20260507080354 64 140 7.0 0.0 0.00 0.00 0.00 60 1017.0
20260507074854 59 130 7.0 0.0 0.00 0.00 0.00 72 1017.0
20260507073353 59 130 7.0 0.0 0.00 0.00 0.00 72 1017.0
20260507071854 59 130 7.0 0.0 0.00 0.00 0.00 72 1017.0
20260507070353 59 130 7.0 0.0 0.00 0.00 0.00 72 1017.0
20260507064853 55 160 7.0 0.0 0.00 0.00 0.00 77 1017.0
20260507063353 55 160 7.0 0.0 0.00 0.00 0.00 77 1017.0
20260507061903 55 160 7.0 0.0 0.00 0.00 0.00 77 1017.0
20260507060354 55 160 7.0 0.0 0.00 0.00 0.00 77 1017.0
20260507054853 50 160 7.0 0.0 0.00 0.00 0.00 88 1017.0
20260507053401 50 160 7.0 0.0 0.00 0.00 0.00 88 1017.0
20260507051854 50 160 7.0 0.0 0.00 0.00 0.00 88 1017.0
20260507050353 0 0.0 0.0 0.00 0.00 0.00
20260507044847 45 180 5.0 0.0 0.00 0.00 0.00 100 1016.0
20260507043353 45 180 5.0 0.0 0.00 0.00 0.00 100 1016.0
20260507041854 45 180 5.0 0.0 0.00 0.00 0.00 100 1016.0
20260507040353 45 180 5.0 0.0 0.00 0.00 0.00 100 1016.0
20260507034850 41 190 5.0 0.0 0.00 0.00 0.00 93 1016.0
20260507033353 41 190 5.0 0.0 0.00 0.00 0.00 93 1016.0
20260507031850 41 190 5.0 0.0 0.00 0.00 0.00 93 1016.0
20260507030353 41 190 5.0 0.0 0.00 0.00 0.00 93 1016.0
20260507024850 45 3.0 0.0 0.00 0.00 0.00 93 1017.0
20260507023353 45 3.0 0.0 0.00 0.00 0.00 93 1017.0
20260507021854 0 0.0 0.0 0.00 0.00 0.00
20260507020353 0 0.0 0.0 0.00 0.00 0.00
20260507014853 46 3.0 0.0 0.00 0.00 0.00 93 1017.0
20260507013353 46 3.0 0.0 0.00 0.00 0.00 93 1017.0
20260507011853 46 3.0 0.0 0.00 0.00 0.00 93 1017.0
20260507010354 46 3.0 0.0 0.00 0.00 0.00 93 1017.0
20260507004853 46 3.0 0.0 0.00 0.00 0.00 93 1017.0
20260507003354 48 3.0 0.0 0.00 0.00 0.00 87 1017.0
20260507001853 48 3.0 0.0 0.00 0.00 0.00 87 1017.0
20260507000353 48 3.0 0.0 0.00 0.00 0.00 87 1017.0
20260506234853 50 3.0 0.0 0.00 0.00 0.00 82 1016.0
20260506233353 50 3.0 0.0 0.00 0.00 0.00 82 1016.0
20260506231851 50 3.0 0.0 0.00 0.00 0.00 82 1016.0
20260506230353 50 3.0 0.0 0.00 0.00 0.00 82 1016.0
20260506224850 52 3.0 0.0 0.00 0.00 0.00 82 1016.0
20260506223353 52 3.0 0.0 0.00 0.00 0.00 82 1016.0
20260506221853 52 3.0 0.0 0.00 0.00 0.00 82 1016.0
20260506220353 0 0.0 0.0 0.00 0.00 0.00
20260506214906 54 3.0 0.0 0.00 0.00 0.00 77 1016.0
20260506213353 54 3.0 0.0 0.00 0.00 0.00 77 1016.0
20260506211847 54 3.0 0.0 0.00 0.00 0.00 77 1016.0
20260506210353 54 3.0 0.0 0.00 0.00 0.00 77 1016.0
20260506204854 52 260 5.0 0.0 0.00 0.00 0.00 77 1016.0
20260506203353 52 260 5.0 0.0 0.00 0.00 0.00 77 1016.0
20260506201847 52 260 5.0 0.0 0.00 0.00 0.00 77 1016.0
20260506200353 52 260 5.0 0.0 0.00 0.00 0.00 77 1016.0
20260506194910 59 160 7.0 0.0 0.00 0.00 0.00 63 1016.0
20260506193417 59 160 7.0 0.0 0.00 0.00 0.00 63 1016.0
20260506191854 59 160 7.0 0.0 0.00 0.00 0.00 63 1016.0
20260506190354 59 160 7.0 0.0 0.00 0.00 0.00 63 1016.0
20260506184856 63 150 9.0 0.0 0.00 0.00 0.00 56 1015.0
20260506183353 63 150 9.0 0.0 0.00 0.00 0.00 56 1015.0
20260506181854 63 150 9.0 0.0 0.00 0.00 0.00 56 1015.0
20260506180354 0 0.0 0.0 0.00 0.00 0.00
20260506174854 68 150 11.0 0.0 0.00 0.00 0.00 46 1014.0
20260506173353 68 150 11.0 0.0 0.00 0.00 0.00 46 1014.0
20260506171854 68 150 11.0 0.0 0.00 0.00 0.00 46 1014.0
20260506170353 68 150 11.0 0.0 0.00 0.00 0.00 46 1014.0
20260506164853 72 170 9.0 0.0 0.00 0.00 0.00 41 1014.0
20260506163353 72 170 9.0 0.0 0.00 0.00 0.00 41 1014.0
20260506161854 72 170 9.0 0.0 0.00 0.00 0.00 41 1014.0
20260506160353 72 170 9.0 0.0 0.00 0.00 0.00 41 1014.0
20260506154854 72 170 14.0 0.0 0.00 0.00 0.00 38 1015.0
20260506153353 72 170 14.0 0.0 0.00 0.00 0.00 38 1015.0
20260506151853 72 170 14.0 0.0 0.00 0.00 0.00 38 1015.0